Current Version              Previous Version:    01  02  03  04  05  06  07  08  09  10  11  12  13  14  15  16  17  18  19  20  21  22  23  24  25  26  27  28  29  30  
   31  32  33  34  35  36  37  38  39  40  41  42  43  44  45  46  47  48  49  50  51  52  53  54  55  56  57  58  59  60  

[Printable]
113
ASUS44 KEWX 221802
RWRTX
SOUTH TEXAS REGIONAL WEATHER ROUNDUP
NATIONAL WEATHER SERVICE AUSTIN/SAN ANTONIO TX
100 PM CDT MON SEP 22 2014

NOTE: "FAIR" INDICATED FEW OR NO CLOUDS BELOW 12,000 FEET WITH NO
SIGNIFICANT WEATHER AND/OR OBSTRUCTIONS TO VISIBILITY.

* - THESE STATIONS ARE NOT NWS OR FAA STATIONS...AND ARE NOT SUBJECT
    TO NWS AND FAA QUALITY CONTROL.

TXZ171-172-183>190-221900-
TEXAS HILL COUNTRY AND EDWARDS PLATEAU

CITY           SKY/WX    TMP DP  RH WIND       PRES   REMARKS
JUNCTION       MOSUNNY   85  60  42 E6        30.19F
6HR MIN TEMP:  65; 6HR MAX TEMP:  85;

*LLANO         MOSUNNY   86  64  48 CALM      30.19F
BURNET         MOSUNNY   86  65  49 NE7       30.19F
6HR MIN TEMP:  68; 6HR MAX TEMP:  87;

*HORSESHOE BAY MOSUNNY   86  64  47 NE6       30.16F
6HR MIN TEMP:  66; 6HR MAX TEMP:  86;

*KERRVILLE     MOSUNNY   84  64  51 E7        30.18F
6HR MIN TEMP:  62; 6HR MAX TEMP:  84;

*FREDERICKSBRG MOSUNNY   83  64  53 E5        30.19F
6HR MIN TEMP:  63; 6HR MAX TEMP:  83;

*ROCKSPRINGS   MOSUNNY   82  61  47 CALM      30.23F
*BOERNE STAGE  PTSUNNY   86  63  45 NE5       30.18S
*CASTROVILLE   PTSUNNY   90  60  36 E7G18     30.14S
HONDO          PTSUNNY   91  62  37 E10G20    30.15F HX  91
6HR MIN TEMP:  65; 6HR MAX TEMP:  92;

*UVALDE        MOSUNNY   88  66  47 E7G17     30.14F HX  90
DEL RIO        SUNNY     85  64  49 SE7       30.14F
6HR MIN TEMP:  73; 6HR MAX TEMP:  85;

LAUGHLIN AFB   NOT AVBL
CARRIZO SPRGS  MOSUNNY   86  64  48 E6        30.12S
$$

TXZ173-191>194-202-209-217>225-228-221900-
CENTRAL AND SOUTH CENTRAL TEXAS

CITY           SKY/WX    TMP DP  RH WIND       PRES   REMARKS
GEORGETOWN     MOSUNNY   88  68  51 N7        30.14F HX  91
AUSTIN/BERGSTM PTSUNNY   89  68  49 N12       30.11F HX  93
6HR MIN TEMP:  66; 6HR MAX TEMP:  89;

AUSTIN/MABRY   SUNNY     90  68  48 VRB3      30.13F HX  94
6HR MIN TEMP:  70; 6HR MAX TEMP:  90;

*AUSTIN/EXEC   SUNNY     86  68  54 N8        30.13F
*LAGO VISTA    MOSUNNY   89  65  45 E8        30.16F HX  90
6HR MIN TEMP:  72; 6HR MAX TEMP:  89;

SAN MARCOS     SUNNY     91  66  43 N9        30.12F HX  94
NEW BRAUNFELS  PTSUNNY   91  65  41 NE6       30.10F HX  93
6HR MIN TEMP:  67; 6HR MAX TEMP:  91;

RANDOLPH AFB   PTSUNNY   88  64  44 E7        30.12F HX  90
6HR MIN TEMP:  68; 6HR MAX TEMP:  88;

PT SAN ANTONIO NOT AVBL
SAN ANTONIO    PTSUNNY   89  65  44 E9        30.13F HX  91
6HR MIN TEMP:  68; 6HR MAX TEMP:  91;

STINSON FIELD  MOSUNNY   91  64  40 E12G20    30.10F HX  92
6HR MIN TEMP:  68; 6HR MAX TEMP:  91;

*PLEASANTON    MOSUNNY   91  63  38 N12       30.11F HX  91
6HR MIN TEMP:  66; 6HR MAX TEMP:  92;

*LA GRANGE     SUNNY     90  72  55 NE6       30.08F HX  96
6HR MIN TEMP:  71; 6HR MAX TEMP:  90;

*GIDDINGS      SUNNY     85  67  55 N9        30.15S
*GONZALES      SUNNY     89  69  52 N5        30.09F HX  93
6HR MIN TEMP:  69; 6HR MAX TEMP:  89;

$$

TXZ163>164-176>182-195>201-210>213-226-227-235-221900-
SOUTHEAST TEXAS

CITY           SKY/WX    TMP DP  RH WIND       PRES   REMARKS
COLLEGE STN    SUNNY     87  72  60 NE14      30.10F HX  93
6HR MIN TEMP:  72; 6HR MAX TEMP:  87;

*BRYAN         SUNNY    N/A N/A N/A N8        30.11F
*CALDWELL      SUNNY     84  72  65 NE8       30.15S
*CROCKETT      SUNNY     86  66  51 NE9       30.16F
*BRENHAM       SUNNY     89  72  57 N6        30.10F HX  96
6HR MIN TEMP:  73; 6HR MAX TEMP:  89;

HUNTSVILLE     CLOUDY    85  67  54 NE7       30.11F
6HR MIN TEMP:  69; 6HR MAX TEMP:  86;

CONROE         MOSUNNY   89  72  56 N8        30.09F HX  96
6HR MIN TEMP:  69; 6HR MAX TEMP:  89;

HOUSTON BUSH   MOSUNNY   90  68  48 VRB5      30.07F HX  94
6HR MIN TEMP:  73; 6HR MAX TEMP:  91;

HOUSTON HOBBY  MOSUNNY   90  69  50 NW6       30.05F HX  94
6HR MIN TEMP:  75; 6HR MAX TEMP:  90;

*HOUSTON SW AP SUNNY     81  64  56 N3        30.06F
6HR MIN TEMP:  63; 6HR MAX TEMP:  81;

PEARLAND       MOSUNNY   91  70  49 NE6       30.07F HX  96
6HR MIN TEMP:  73; 6HR MAX TEMP:  92;

HOUSTON HOOKS  SUNNY     90  73  57 NE6       30.08F HX  98
6HR MIN TEMP:  73; 6HR MAX TEMP:  90;

ELLINGTON FLD  MOSUNNY   90  75  62 NE5       30.06F HX 100
SUGAR LAND     SUNNY     90  71  53 NW7       30.06F HX  96
6HR MIN TEMP:  71; 6HR MAX TEMP:  90;

*HOUSTON EXEC  SUNNY     88  88 100 N7        30.08F HX 120
*CLEVELAND MUN MOSUNNY   87  75  67 NE5       30.09F HX  97
6HR MIN TEMP:  70; 6HR MAX TEMP:  87;

*WHARTON       SUNNY     90  70  51 NE7       30.07F HX  94
6HR MIN TEMP:  69; 6HR MAX TEMP:  90;

$$

TXZ214>216-236>238-221900-
THE UPPER TEXAS COAST

CITY           SKY/WX    TMP DP  RH WIND       PRES   REMARKS
*ORANGE        MOSUNNY   86  73  64 N7        30.07F HX  93
PORT ARTHUR    SUNNY     90  74  59 N10       30.05F HX  99
6HR MIN TEMP:  71; 6HR MAX TEMP:  91;

GALVESTON      MOSUNNY   88  70  55 N10       30.06F HX  93
6HR MIN TEMP:  78; 6HR MAX TEMP:  88;

ANGLETON       MOSUNNY   89  70  53 NE8       30.05F HX  94
6HR MIN TEMP:  70; 6HR MAX TEMP:  90;

*BAY CITY      MOSUNNY   91  73  56 N6        30.05F HX  99
PALACIOS       MOSUNNY   90  72  55 N9        30.06F HX  97
6HR MIN TEMP:  71; 6HR MAX TEMP:  90;

$$

TXZ229>234-239>247-221900-
TEXAS COASTAL BEND AND RIO GRANDE PLAINS

CITY           SKY/WX    TMP DP  RH WIND       PRES   REMARKS
VICTORIA       MOSUNNY   92  71  50 NE10      30.07F HX  98
6HR MIN TEMP:  70; 6HR MAX TEMP:  93;

*BEEVILLE      SUNNY     91  65  40 E10G18    30.07F HX  93
6HR MIN TEMP:  71; 6HR MAX TEMP:  92;

ROCKPORT       SUNNY     90  69  50 E13       30.06F HX  94
6HR MIN TEMP:  75; 6HR MAX TEMP:  90;

*PORT ARANSAS  SUNNY     86  72  64 NE9G17    30.05F HX  92
6HR MIN TEMP:  78; 6HR MAX TEMP:  86;

*PORT LAVACA   SUNNY     88  72  58 NE8       30.06F HX  94
6HR MIN TEMP:  71; 6HR MAX TEMP:  88;

*INGLESIDE     SUNNY     90  67  45 E14G21    30.05F HX  93
CORPUS CHRISTI PTSUNNY   88  70  55 NE14G23   30.06F HX  93
6HR MIN TEMP:  74; 6HR MAX TEMP:  89;

CORPUS NAS     PTSUNNY   87  75  67 NE13      30.05F HX  96
6HR MIN TEMP:  80; 6HR MAX TEMP:  87;

*ROBSTOWN      SUNNY     89  69  51 E14       30.07S HX  93
6HR MIN TEMP:  73; 6HR MAX TEMP:  89;

ALICE          MOSUNNY   88  69  53 NE13      30.07F HX  92
6HR MIN TEMP:  72; 6HR MAX TEMP:  88;

KINGSVILLE NAS PTSUNNY   90  74  59 NE10G20   30.05F HX  99
6HR MIN TEMP:  72; 6HR MAX TEMP:  90;

COTULLA        PTSUNNY   88  67  49 VRB5      30.11F HX  91
6HR MIN TEMP:  72; 6HR MAX TEMP:  89;

*FAITH RANCH   MOSUNNY   84  66  54 E9        30.14F
LAREDO         MOSUNNY   87  69  54 NE10      30.12F HX  91
6HR MIN TEMP:  72; 6HR MAX TEMP:  87;

$$

TXZ248>255-221900-
DEEP SOUTH TEXAS

CITY           SKY/WX    TMP DP  RH WIND       PRES   REMARKS
BROWNSVILLE    LGT RAIN  83  76  79 NE12G22   30.01F HX  91
6HR MIN TEMP:  76; 6HR MAX TEMP:  88; 6HR PCP: TRACE;

PORT ISABEL    NOT AVBL
*SOUTH PADRE   PTSUNNY   86  77  74 NE21      30.02S HX  97
HARLINGEN      CLOUDY    83  76  79 NE14      30.02F HX  91
6HR MIN TEMP:  75; 6HR MAX TEMP:  85; 6HR PCP:  0.02;

*HEBBRONVILLE    N/A     85  67  56 NE10G20   30.11S
MCALLEN        PTSUNNY   88  76  67 NE13G18   30.02F HX  99
6HR MIN TEMP:  77; 6HR MAX TEMP:  88; 6HR PCP: TRACE;

*WESLACO       PTSUNNY   86  73  66 NE13G22   30.02F HX  93
6HR MIN TEMP:  76; 6HR MAX TEMP:  86;

FALFURRIAS     MOSUNNY  N/A N/A N/A NE13G21   30.05F
EDINBURG       PTSUNNY   89  72  57 N15       30.03F HX  96
6HR MIN TEMP:  76; 6HR MAX TEMP:  89; 6HR PCP:  0.01;